Location: Launois
(49.6535°N, 4.5395°E)
Time: 06:53:50
(UTC+00:00)

CZ-2C R/B - Pass Details

Date: 23 May 2024
Orbit: 784 x 868 km, 98.3° (Epoch: 19 June)

Event Time Altitude Azimuth Distance (km) Brightness Sun altitude
Exits shadow 00:47:48 - 134° (SE) 2,728 5.1 -18.0°
Reaches altitude 10° 00:48:51 10° 130° (SE) 2,340 4.8 -18.0°
Maximum altitude 00:53:32 37° 65° (ENE) 1,215 3.9 -17.8°
Drops below altitude 10° 00:58:16 10° 359° (N) 2,364 6.1 -17.5°
Sets 01:00:45 0° 352° (N) 3,305 6.9 -17.4°
